Home   Weather   Granada   Past weeks

Flag for Spain Past Weather in Granada, Spain — Yesterday and Last 2 Weeks

Now
68 °F

Mild.


Feels Like: 68 °F
Forecast: 60 / 93 °F
Wind: 1 mph from North

Location: Granada / Aeropuerto

Current Time: Sep 1, 2016 at 5:45:37 AM

Latest Report: Sep 1, 2016 at 5:00 AM


Visibility: N/A

Pressure: 30.15 "Hg (27.79 "Hg at 698m altitude)

Humidity: 78%

Dew Point: 61 °F

Location of GranadaLocation

Past Weather in Granada — Graph

°F

Granada Temperature Yesterday

Maximum temperature yesterday: 93 °F (at 5:30 PM)
Minimum temperature yesterday: 63 °F (at 7:00 AM)
Average temperature yesterday: 78 °F

High & Low Weather Summary for the Past Weeks

 TemperatureHumidityPressure
High100 °F (Aug 28, 4:00 PM)94% (Aug 26, 7:00 AM)30.24 "Hg (Aug 26, 7:00 AM)
Low61 °F (Aug 25, 8:00 AM)11% (Aug 29, 5:30 PM)29.89 "Hg (Aug 18, 5:30 PM)
Average80 °F45%30.08 "Hg
* Reported Aug 17 4:00 AM — Sep 1 4:30 AM, Granada, Weather by CustomWeather, © 2016

Note: Actual official high and low records may vary slightly from our data, if they occured in-between our weather recording intervals... More about our weather records

Advertising

Granada Weather History for the Previous 24 Hours

Scroll right to see more
 ConditionsComfort  
Time TempWeatherWind HumidityBarometerVisibility
4:30 AM
Thu, Sep 1
68 °FMild.No wind78%30.15 "HgN/A
4:00 AM68 °FMild.1 mph83%30.15 "HgN/A
3:30 AM70 °FMild.1 mph73%30.15 "HgN/A
3:00 AM72 °FMild.5 mph69%30.15 "HgN/A
2:30 AM73 °FMild.1 mph74%30.15 "HgN/A
2:00 AM73 °FMild.5 mph78%30.15 "HgN/A
1:30 AM73 °FMild.No wind69%30.15 "HgN/A
1:00 AM73 °FMild.3 mph69%30.15 "HgN/A
12:30 AM75 °FMild.8 mph69%30.15 "HgN/A
12:00 AM75 °FMild.8 mph61%30.15 "HgN/A
11:30 PM
Wed, Aug 31
75 °FMild.6 mph65%30.15 "HgN/A
11:00 PM77 °FPassing clouds.7 mph51%30.12 "HgN/A
10:30 PM79 °FPassing clouds.8 mph48%30.12 "HgN/A
10:00 PM81 °FPassing clouds.8 mph45%30.09 "HgN/A
9:30 PM81 °FPassing clouds.10 mph42%30.09 "HgN/A
9:00 PM82 °FPassing clouds.5 mph45%30.07 "HgN/A
8:30 PM86 °FPassing clouds.8 mph40%30.07 "HgN/A
8:00 PM86 °FPassing clouds.9 mph38%30.04 "HgN/A
7:30 PM88 °FPassing clouds.9 mph35%30.04 "HgN/A
7:00 PM90 °FPassing clouds.10 mph33%30.04 "HgN/A
6:30 PM91 °FPassing clouds.9 mph32%30.04 "HgN/A
6:00 PM91 °FPassing clouds.7 mph32%30.04 "HgN/A
5:30 PM93 °FPassing clouds.3 mph23%30.04 "HgN/A
5:00 PM91 °FPassing clouds.3 mph26%30.07 "HgN/A
4:30 PM91 °FPassing clouds.5 mph26%30.07 "HgN/A
4:00 PM91 °FPassing clouds.5 mph24%30.07 "HgN/A
3:30 PM90 °FPassing clouds.5 mph26%30.09 "HgN/A
3:00 PM90 °FPassing clouds.2 mph26%30.09 "HgN/A
2:30 PM90 °FPassing clouds.5 mph27%30.09 "HgN/A
2:00 PM88 °FPassing clouds.6 mph25%30.09 "HgN/A
1:30 PM86 °FPassing clouds.1 mph33%30.12 "HgN/A
1:00 PM84 °FPassing clouds.1 mph43%30.12 "HgN/A
12:30 PM82 °FPassing clouds.3 mph48%30.12 "HgN/A
12:00 PM81 °FPassing clouds.3 mph54%30.12 "HgN/A
11:30 AM79 °FPassing clouds.3 mph58%30.12 "HgN/A
11:00 AM77 °FSunny.2 mph61%30.12 "Hg10 mi
10:30 AM75 °FSunny.2 mph57%30.12 "Hg10 mi
10:00 AM72 °FSunny.1 mph57%30.12 "Hg10 mi
9:30 AM70 °FSunny.1 mph60%30.12 "Hg10 mi
9:00 AM66 °FSunny.1 mph64%30.12 "Hg10 mi
8:30 AM63 °FClear.1 mph68%30.12 "Hg10 mi
8:00 AM63 °FClear.No wind73%30.09 "Hg10 mi
7:30 AM64 °FClear.2 mph68%30.09 "Hg10 mi
7:00 AM63 °FClear.2 mph73%30.09 "Hg10 mi
6:30 AM64 °FClear.1 mph73%30.09 "Hg10 mi
6:00 AM64 °FClear.No wind68%30.09 "Hg10 mi
5:30 AM64 °FMild.No wind68%30.09 "HgN/A
5:00 AM66 °FMild.No wind64%30.09 "HgN/A
Weather by CustomWeather, © 2016

See weather overviewHow to use our weather pages